^^
Station Historical Data
Daily Summary for November 19, 2021 Units:  English    Metric   Both
Daily Weekly Monthly Yearly
  High: Low: Average:
Temperature: 41.4 °F 33.4 °F 36.5 °F
Dew Point: 31.7 °F 25.9 °F 28.5 °F
Humidity: 80% 59% 73%
Wind Speed: 8mph 1mph 5.5mph
Wind Gust: 17mph - -
Wind- - WSW
Pressure: 30.42 in 30.14 in -
Precipitation: 0.00 in    
 
 
Tabular Data for November 19, 2021
Time Temperature Dew Point Pressure Wind Wind Speed Wind Gust Humidity Rainfall Rate (Hourly) solar
00:00 34.6 °F 27.5 °F 30.14 in WSW 7 mph 8 mph 75% 0.00 in 0 W/m2
00:05 34.6 °F 27.5 °F 30.15 in WSW 8 mph 8 mph 75% 0.00 in 0 W/m2
00:10 34.5 °F 27.4 °F 30.15 in West 4 mph 4 mph 75% 0.00 in 0 W/m2
00:15 34.4 °F 27 °F 30.15 in WNW 7 mph 6 mph 74% 0.00 in 0 W/m2
00:20 34.4 °F 27.3 °F 30.15 in NW 7 mph 7 mph 75% 0.00 in 0 W/m2
00:25 34.4 °F 27.3 °F 30.15 in NW 7 mph 7 mph 75% 0.00 in 0 W/m2
00:30 34.4 °F 27 °F 30.15 in NW 6 mph 6 mph 74% 0.00 in 0 W/m2
00:35 34.3 °F 26.9 °F 30.15 in WNW 6 mph 8 mph 74% 0.00 in 0 W/m2
00:40 34.3 °F 26.9 °F 30.15 in WSW 6 mph 6 mph 74% 0.00 in 0 W/m2
00:45 34.3 °F 27.2 °F 30.16 in West 5 mph 17 mph 75% 0.00 in 0 W/m2
00:50 34.3 °F 26.9 °F 30.16 in WNW 6 mph 6 mph 74% 0.00 in 0 W/m2
00:55 34.2 °F 27.1 °F 30.16 in WNW 6 mph 6 mph 75% 0.00 in 0 W/m2
01:00 34.2 °F 26.8 °F 30.16 in NNW 6 mph 6 mph 74% 0.00 in 0 W/m2
01:05 34.2 °F 26.8 °F 30.16 in WSW 7 mph 7 mph 74% 0.00 in 0 W/m2
01:10 34.1 °F 26.7 °F 30.16 in NW 7 mph 7 mph 74% 0.00 in 0 W/m2
01:15 34 °F 26.3 °F 30.16 in SW 6 mph 7 mph 73% 0.00 in 0 W/m2
01:20 34 °F 26.6 °F 30.17 in ENE 6 mph 6 mph 74% 0.00 in 0 W/m2
01:25 34 °F 26.9 °F 30.17 in WNW 6 mph 9 mph 75% 0.00 in 0 W/m2
01:30 33.9 °F 26.5 °F 30.17 in West 7 mph 7 mph 74% 0.00 in 0 W/m2
01:35 33.9 °F 26.5 °F 30.17 in NW 7 mph 7 mph 74% 0.00 in 0 W/m2
01:40 33.8 °F 26.4 °F 30.17 in WNW 6 mph 6 mph 74% 0.00 in 0 W/m2
01:45 33.8 °F 26.4 °F 30.17 in WNW 5 mph 7 mph 74% 0.00 in 0 W/m2
01:50 33.7 °F 26.3 °F 30.17 in West 6 mph 6 mph 74% 0.00 in 0 W/m2
01:55 33.7 °F 26.3 °F 30.17 in West 6 mph 11 mph 74% 0.00 in 0 W/m2
02:00 33.7 °F 26.3 °F 30.18 in WNW 7 mph 7 mph 74% 0.00 in 0 W/m2
02:05 33.6 °F 26.2 °F 30.18 in West 7 mph 11 mph 74% 0.00 in 0 W/m2
02:10 33.6 °F 25.9 °F 30.18 in WSW 7 mph 7 mph 73% 0.00 in 0 W/m2
02:15 33.6 °F 26.2 °F 30.18 in North 7 mph 8 mph 74% 0.00 in 0 W/m2
02:20 33.5 °F 26.1 °F 30.19 in WNW 7 mph 7 mph 74% 0.00 in 0 W/m2
02:25 33.5 °F 26.1 °F 30.19 in WNW 7 mph 7 mph 74% 0.00 in 0 W/m2
02:30 33.4 °F 26 °F 30.19 in West 6 mph 12 mph 74% 0.00 in 0 W/m2
02:35 33.4 °F 26 °F 30.19 in SSW 6 mph 12 mph 74% 0.00 in 0 W/m2
02:40 33.4 °F 26.3 °F 30.19 in West 6 mph 11 mph 75% 0.00 in 0 W/m2
02:45 33.4 °F 26.3 °F 30.20 in SW 7 mph 11 mph 75% 0.00 in 0 W/m2
02:50 33.4 °F 26.3 °F 30.20 in West 6 mph 6 mph 75% 0.00 in 0 W/m2
02:55 33.5 °F 26.4 °F 30.20 in NW 5 mph 6 mph 75% 0.00 in 0 W/m2
03:00 33.5 °F 26.4 °F 30.20 in NW 6 mph 9 mph 75% 0.00 in 0 W/m2
03:05 33.5 °F 26.4 °F 30.21 in West 6 mph 9 mph 75% 0.00 in 0 W/m2
03:10 33.5 °F 26.1 °F 30.21 in NW 6 mph 6 mph 74% 0.00 in 0 W/m2
03:15 33.5 °F 26.4 °F 30.21 in WSW 7 mph 7 mph 75% 0.00 in 0 W/m2
03:20 33.5 °F 26.4 °F 30.22 in ESE 7 mph 7 mph 75% 0.00 in 0 W/m2
03:25 33.5 °F 26.4 °F 30.22 in WSW 7 mph 7 mph 75% 0.00 in 0 W/m2
03:30 33.6 °F 26.5 °F 30.22 in NW 7 mph 9 mph 75% 0.00 in 0 W/m2
03:35 33.6 °F 26.5 °F 30.22 in WNW 7 mph 9 mph 75% 0.00 in 0 W/m2
03:40 33.6 °F 26.5 °F 30.22 in WNW 7 mph 8 mph 75% 0.00 in 0 W/m2
03:45 33.6 °F 26.5 °F 30.22 in WSW 7 mph 8 mph 75% 0.00 in 0 W/m2
03:50 33.6 °F 26.2 °F 30.22 in SW 8 mph 8 mph 74% 0.00 in 0 W/m2
03:55 33.6 °F 26.5 °F 30.22 in WSW 8 mph 8 mph 75% 0.00 in 0 W/m2
04:00 33.6 °F 26.5 °F 30.23 in WSW 7 mph 9 mph 75% 0.00 in 0 W/m2
04:05 33.6 °F 26.5 °F 30.23 in NW 7 mph 9 mph 75% 0.00 in 0 W/m2
04:10 33.6 °F 26.2 °F 30.23 in West 8 mph 8 mph 74% 0.00 in 0 W/m2
04:15 33.6 °F 26.5 °F 30.23 in NNW 8 mph 8 mph 75% 0.00 in 0 W/m2
04:20 33.6 °F 26.5 °F 30.24 in WNW 7 mph 7 mph 75% 0.00 in 0 W/m2
04:25 33.7 °F 26.6 °F 30.24 in WSW 7 mph 8 mph 75% 0.00 in 0 W/m2
04:30 33.7 °F 26.6 °F 30.25 in West 7 mph 7 mph 75% 0.00 in 0 W/m2
04:35 33.7 °F 26.9 °F 30.25 in NNW 7 mph 10 mph 76% 0.00 in 0 W/m2
04:40 33.7 °F 26.6 °F 30.25 in WNW 7 mph 7 mph 75% 0.00 in 0 W/m2
04:45 33.6 °F 26.5 °F 30.25 in WNW 8 mph 8 mph 75% 0.00 in 0 W/m2
04:50 33.6 °F 26.8 °F 30.25 in NW 8 mph 9 mph 76% 0.00 in 0 W/m2
04:55 33.6 °F 26.8 °F 30.26 in NW 7 mph 13 mph 76% 0.00 in 0 W/m2
05:00 33.5 °F 26.7 °F 30.26 in West 7 mph 7 mph 76% 0.00 in 0 W/m2
05:10 33.5 °F 26.7 °F 30.26 in NNW 7 mph 7 mph 76% 0.00 in 0 W/m2
05:15 33.5 °F 26.7 °F 30.27 in WNW 6 mph 8 mph 76% 0.00 in 0 W/m2
05:20 33.6 °F 27.2 °F 30.27 in SW 8 mph 9 mph 77% 0.00 in 0 W/m2
05:25 33.6 °F 27.2 °F 30.27 in West 8 mph 13 mph 77% 0.00 in 0 W/m2
05:30 33.6 °F 27.2 °F 30.27 in WNW 7 mph 8 mph 77% 0.00 in 0 W/m2
05:40 33.6 °F 27.2 °F 30.27 in WSW 7 mph 7 mph 77% 0.00 in 0 W/m2
05:50 33.7 °F 27.3 °F 30.28 in SW 7 mph 8 mph 77% 0.00 in 0 W/m2
05:55 33.8 °F 27.4 °F 30.28 in NW 7 mph 12 mph 77% 0.00 in 0 W/m2
06:05 33.9 °F 27.4 °F 30.29 in NW 6 mph 6 mph 77% 0.00 in 0 W/m2
06:10 33.9 °F 27.4 °F 30.29 in West 7 mph 7 mph 77% 0.00 in 0 W/m2
06:15 34 °F 27.5 °F 30.29 in WNW 7 mph 7 mph 77% 0.00 in 0 W/m2
06:20 34.1 °F 27.6 °F 30.29 in WNW 7 mph 7 mph 77% 0.00 in 0 W/m2
06:25 34.1 °F 27.6 °F 30.30 in NW 8 mph 8 mph 77% 0.00 in 0 W/m2
06:30 34.1 °F 27.6 °F 30.30 in WSW 8 mph 8 mph 77% 0.00 in 0 W/m2
06:35 34.1 °F 27.6 °F 30.30 in WSW 7 mph 7 mph 77% 0.00 in 0 W/m2
06:40 34.2 °F 27.7 °F 30.30 in West 7 mph 7 mph 77% 0.00 in 0 W/m2
06:45 34.2 °F 27.7 °F 30.30 in NNW 7 mph 7 mph 77% 0.00 in 0 W/m2
06:50 34.2 °F 27.7 °F 30.31 in WSW 8 mph 10 mph 77% 0.00 in 0 W/m2
06:55 34.2 °F 27.7 °F 30.31 in NW 8 mph 9 mph 77% 0.00 in 0 W/m2
07:00 34.2 °F 27.7 °F 30.32 in West 8 mph 10 mph 77% 0.00 in 0 W/m2
07:05 34.2 °F 27.7 °F 30.32 in North 8 mph 10 mph 77% 0.00 in 0 W/m2
07:10 34.1 °F 27.6 °F 30.32 in West 7 mph 8 mph 77% 0.00 in 0 W/m2
07:15 34.1 °F 28 °F 30.32 in SW 6 mph 8 mph 78% 0.00 in 0 W/m2
07:20 34.1 °F 27.6 °F 30.33 in WNW 7 mph 7 mph 77% 0.00 in 0 W/m2
07:25 34 °F 27.5 °F 30.33 in NW 6 mph 7 mph 77% 0.00 in 0 W/m2
07:30 34 °F 27.9 °F 30.33 in NNW 5 mph 6 mph 78% 0.00 in 0 W/m2
07:40 34 °F 27.9 °F 30.33 in West 6 mph 6 mph 78% 0.00 in 7 W/m2
07:45 34 °F 27.9 °F 30.33 in West 6 mph 9 mph 78% 0.00 in 9 W/m2
07:50 34 °F 27.9 °F 30.33 in SW 7 mph 7 mph 78% 0.00 in 11 W/m2
07:55 34.1 °F 28 °F 30.34 in SW 7 mph 7 mph 78% 0.00 in 12 W/m2
08:00 34.1 °F 28.3 °F 30.34 in NW 7 mph 7 mph 79% 0.00 in 14 W/m2
08:05 34.1 °F 28.3 °F 30.35 in West 7 mph 7 mph 79% 0.00 in 14 W/m2
08:10 34.1 °F 28.3 °F 30.35 in NW 8 mph 9 mph 79% 0.00 in 16 W/m2
08:15 34.2 °F 28.4 °F 30.35 in West 7 mph 9 mph 79% 0.00 in 18 W/m2
08:20 34.2 °F 28.4 °F 30.35 in WNW 8 mph 8 mph 79% 0.00 in 19 W/m2
08:25 34.3 °F 28.8 °F 30.35 in WNW 7 mph 8 mph 80% 0.00 in 19 W/m2
08:30 34.4 °F 28.6 °F 30.36 in East 6 mph 6 mph 79% 0.00 in 21 W/m2
08:35 34.5 °F 29 °F 30.36 in NNW 6 mph 6 mph 80% 0.00 in 23 W/m2
08:40 34.7 °F 29.2 °F 30.36 in NNW 6 mph 6 mph 80% 0.00 in 23 W/m2
08:45 35 °F 29.1 °F 30.36 in NW 6 mph 9 mph 79% 0.00 in 23 W/m2
08:50 35.2 °F 29.3 °F 30.37 in WNW 5 mph 10 mph 79% 0.00 in 25 W/m2
08:55 35.2 °F 29 °F 30.37 in WSW 6 mph 10 mph 78% 0.00 in 26 W/m2
09:00 35.3 °F 29.1 °F 30.37 in NNW 6 mph 6 mph 78% 0.00 in 26 W/m2
09:05 35.6 °F 29.4 °F 30.38 in WSW 6 mph 6 mph 78% 0.00 in 30 W/m2
09:10 35.9 °F 29.7 °F 30.38 in NW 6 mph 6 mph 78% 0.00 in 26 W/m2
09:15 35.9 °F 29.7 °F 30.38 in WNW 7 mph 7 mph 78% 0.00 in 97 W/m2
09:20 36.2 °F 29.7 °F 30.38 in WNW 7 mph 8 mph 77% 0.00 in 32 W/m2
09:25 36.2 °F 29.4 °F 30.38 in West 7 mph 8 mph 76% 0.00 in 26 W/m2
09:30 36.4 °F 29.6 °F 30.39 in NNW 7 mph 10 mph 76% 0.00 in 28 W/m2
09:35 36.5 °F 30 °F 30.39 in West 7 mph 10 mph 77% 0.00 in 28 W/m2
09:40 36.5 °F 30.3 °F 30.40 in West 6 mph 6 mph 78% 0.00 in 28 W/m2
09:45 36.4 °F 29.9 °F 30.40 in NW 6 mph 6 mph 77% 0.00 in 28 W/m2
09:50 36.4 °F 29.9 °F 30.40 in WNW 6 mph 8 mph 77% 0.00 in 30 W/m2
09:55 36.6 °F 30.1 °F 30.40 in WSW 6 mph 8 mph 77% 0.00 in 30 W/m2
10:00 36.7 °F 30.2 °F 30.40 in West 5 mph 6 mph 77% 0.00 in 33 W/m2
10:10 36.5 °F 30 °F 30.40 in NNW 6 mph 9 mph 77% 0.00 in 30 W/m2
10:20 36.6 °F 29.7 °F 30.40 in West 6 mph 6 mph 76% 0.00 in 30 W/m2
10:25 36.7 °F 29.5 °F 30.41 in NW 6 mph 6 mph 75% 0.00 in 35 W/m2
10:30 36.7 °F 29.5 °F 30.41 in WNW 5 mph 5 mph 75% 0.00 in 32 W/m2
10:35 37 °F 29.8 °F 30.41 in WNW 5 mph 5 mph 75% 0.00 in 33 W/m2
10:40 37 °F 29.8 °F 30.41 in WSW 6 mph 7 mph 75% 0.00 in 47 W/m2
10:45 37 °F 29.8 °F 30.42 in NW 6 mph 7 mph 75% 0.00 in 32 W/m2
10:50 37 °F 29.8 °F 30.42 in West 6 mph 6 mph 75% 0.00 in 32 W/m2
10:55 37.1 °F 29.9 °F 30.42 in WNW 5 mph 6 mph 75% 0.00 in 35 W/m2
11:00 37.2 °F 29.7 °F 30.42 in West 5 mph 10 mph 74% 0.00 in 33 W/m2
11:05 37.2 °F 29.7 °F 30.42 in NNW 6 mph 10 mph 74% 0.00 in 33 W/m2
11:10 37.2 °F 29.7 °F 30.42 in West 6 mph 12 mph 74% 0.00 in 47 W/m2
11:15 37.4 °F 29.9 °F 30.42 in West 6 mph 12 mph 74% 0.00 in 42 W/m2
11:20 37.5 °F 30 °F 30.42 in NNW 6 mph 6 mph 74% 0.00 in 37 W/m2
11:25 37.8 °F 29.9 °F 30.42 in West 5 mph 9 mph 73% 0.00 in 97 W/m2
11:30 37.8 °F 29.9 °F 30.42 in West 5 mph 5 mph 73% 0.00 in 35 W/m2
11:36 38 °F 29.8 °F 30.42 in SSE 6 mph 6 mph 72% 0.00 in 40 W/m2
11:40 37.9 °F 29.7 °F 30.42 in SW 6 mph 6 mph 72% 0.00 in 46 W/m2
11:45 38.3 °F 29.7 °F 30.42 in NW 6 mph 6 mph 71% 0.00 in 209 W/m2
11:50 38.2 °F 30 °F 30.42 in NNW 6 mph 6 mph 72% 0.00 in 439 W/m2
11:55 38.2 °F 30 °F 30.42 in WNW 6 mph 6 mph 72% 0.00 in 443 W/m2
12:00 38.4 °F 30.2 °F 30.42 in WSW 6 mph 8 mph 72% 0.00 in 445 W/m2
12:05 38.3 °F 30.1 °F 30.42 in NW 6 mph 8 mph 72% 0.00 in 446 W/m2
12:10 38.6 °F 30.4 °F 30.42 in WNW 6 mph 6 mph 72% 0.00 in 452 W/m2
12:15 39.1 °F 30.8 °F 30.42 in WNW 5 mph 6 mph 72% 0.00 in 478 W/m2
12:20 39.2 °F 30.2 °F 30.42 in North 5 mph 5 mph 70% 0.00 in 612 W/m2
12:25 40.2 °F 30.8 °F 30.42 in WNW 5 mph 6 mph 69% 0.00 in 613 W/m2
12:30 40.1 °F 30 °F 30.42 in West 4 mph 4 mph 67% 0.00 in 613 W/m2
12:35 39.9 °F 30.2 °F 30.42 in NW 5 mph 5 mph 68% 0.00 in 204 W/m2
12:40 39.9 °F 30.9 °F 30.42 in South 5 mph 5 mph 70% 0.00 in 390 W/m2
12:45 40.4 °F 30.3 °F 30.42 in North 4 mph 5 mph 67% 0.00 in 306 W/m2
12:50 40.2 °F 29.7 °F 30.42 in WSW 4 mph 8 mph 66% 0.00 in 434 W/m2
12:55 40.5 °F 30 °F 30.42 in WSW 5 mph 8 mph 66% 0.00 in 234 W/m2
13:00 40.8 °F 29.2 °F 30.41 in NW 5 mph 6 mph 63% 0.00 in 76 W/m2
13:05 40.5 °F 28.1 °F 30.42 in NNW 5 mph 6 mph 61% 0.00 in 308 W/m2
13:10 40.7 °F 28.7 °F 30.41 in NNW 5 mph 6 mph 62% 0.00 in 308 W/m2
13:20 41.3 °F 28 °F 30.41 in WSW 4 mph 5 mph 59% 0.00 in 197 W/m2
13:25 40.9 °F 29.7 °F 30.41 in SW 4 mph 5 mph 64% 0.00 in 221 W/m2
13:30 40.2 °F 28.2 °F 30.42 in WSW 5 mph 9 mph 62% 0.00 in 151 W/m2
13:35 39.9 °F 29.1 °F 30.41 in WSW 5 mph 9 mph 65% 0.00 in 132 W/m2
13:40 39.5 °F 28.3 °F 30.42 in WSW 5 mph 5 mph 64% 0.00 in 118 W/m2
13:45 39.3 °F 28.9 °F 30.42 in WNW 5 mph 5 mph 66% 0.00 in 120 W/m2
13:55 39.4 °F 29 °F 30.42 in West 4 mph 4 mph 66% 0.00 in 134 W/m2
14:00 39.4 °F 28.6 °F 30.41 in WSW 4 mph 5 mph 65% 0.00 in 163 W/m2
14:05 39.7 °F 29.6 °F 30.41 in WSW 4 mph 5 mph 67% 0.00 in 160 W/m2
14:10 39.8 °F 30.5 °F 30.41 in SSW 4 mph 4 mph 69% 0.00 in 272 W/m2
14:15 40 °F 30.6 °F 30.41 in WNW 4 mph 4 mph 69% 0.00 in 156 W/m2
14:20 40.3 °F 30.9 °F 30.41 in WSW 5 mph 5 mph 69% 0.00 in 169 W/m2
14:25 40.5 °F 30.8 °F 30.41 in SW 5 mph 5 mph 68% 0.00 in 167 W/m2
14:30 41.3 °F 29.3 °F 30.41 in SSW 5 mph 5 mph 62% 0.00 in 162 W/m2
14:35 41.3 °F 30 °F 30.41 in SW 5 mph 5 mph 64% 0.00 in 127 W/m2
14:40 40.8 °F 30.7 °F 30.41 in SW 5 mph 5 mph 67% 0.00 in 148 W/m2
14:45 40.9 °F 31.1 °F 30.41 in SW 5 mph 5 mph 68% 0.00 in 135 W/m2
14:50 41.4 °F 30.5 °F 30.41 in SSW 5 mph 5 mph 65% 0.00 in 178 W/m2
14:55 41.1 °F 30.2 °F 30.41 in SW 4 mph 6 mph 65% 0.00 in 137 W/m2
15:00 40.8 °F 29.2 °F 30.40 in West 4 mph 4 mph 63% 0.00 in 153 W/m2
15:05 41.3 °F 30 °F 30.40 in SW 4 mph 5 mph 64% 0.00 in 163 W/m2
15:10 41.4 °F 28.9 °F 30.40 in West 4 mph 7 mph 61% 0.00 in 111 W/m2
15:15 41.2 °F 29.9 °F 30.40 in SW 4 mph 7 mph 64% 0.00 in 74 W/m2
15:20 41.1 °F 29.8 °F 30.40 in West 4 mph 4 mph 64% 0.00 in 67 W/m2
15:25 40.7 °F 30.2 °F 30.40 in South 4 mph 4 mph 66% 0.00 in 76 W/m2
15:30 40.3 °F 28.7 °F 30.40 in SSW 4 mph 4 mph 63% 0.00 in 116 W/m2
15:35 40.4 °F 29.2 °F 30.40 in SW 4 mph 5 mph 64% 0.00 in 40 W/m2
15:40 40.2 °F 29.7 °F 30.40 in WNW 4 mph 4 mph 66% 0.00 in 74 W/m2
15:45 40.1 °F 30.4 °F 30.40 in WSW 3 mph 4 mph 68% 0.00 in 37 W/m2
15:50 39.7 °F 28.1 °F 30.40 in West 3 mph 3 mph 63% 0.00 in 51 W/m2
15:55 39.5 °F 27.5 °F 30.40 in WSW 3 mph 4 mph 62% 0.00 in 35 W/m2
16:00 39.3 °F 28.5 °F 30.40 in West 3 mph 3 mph 65% 0.00 in 39 W/m2
16:05 39.4 °F 29.3 °F 30.40 in SSW 3 mph 3 mph 67% 0.00 in 95 W/m2
16:10 39.6 °F 30.3 °F 30.40 in WSW 3 mph 4 mph 69% 0.00 in 49 W/m2
16:15 39.4 °F 29 °F 30.40 in SW 3 mph 4 mph 66% 0.00 in 40 W/m2
16:21 39.3 °F 30 °F 30.40 in SSW 4 mph 4 mph 69% 0.00 in 40 W/m2
16:25 39.4 °F 30.8 °F 30.40 in SSW 4 mph 5 mph 71% 0.00 in 39 W/m2
16:30 39.2 °F 29.9 °F 30.40 in SW 4 mph 5 mph 69% 0.00 in 37 W/m2
16:35 39.2 °F 29.9 °F 30.40 in SW 4 mph 4 mph 69% 0.00 in 30 W/m2
16:40 39.1 °F 29.8 °F 30.40 in WSW 4 mph 4 mph 69% 0.00 in 25 W/m2
16:45 39 °F 29.3 °F 30.40 in West 4 mph 4 mph 68% 0.00 in 14 W/m2
16:50 39 °F 30 °F 30.40 in WSW 4 mph 6 mph 70% 0.00 in 9 W/m2
16:55 38.9 °F 30.3 °F 30.40 in SW 4 mph 4 mph 71% 0.00 in 7 W/m2
17:00 38.9 °F 30.6 °F 30.40 in South 4 mph 6 mph 72% 0.00 in 5 W/m2
17:05 39 °F 30.4 °F 30.40 in SW 4 mph 6 mph 71% 0.00 in 0 W/m2
17:10 38.8 °F 29.8 °F 30.40 in South 3 mph 4 mph 70% 0.00 in 0 W/m2
17:15 38.7 °F 29.4 °F 30.40 in SSW 3 mph 4 mph 69% 0.00 in 0 W/m2
17:20 38.6 °F 29.3 °F 30.40 in SW 3 mph 3 mph 69% 0.00 in 0 W/m2
17:25 38.6 °F 29.3 °F 30.40 in West 3 mph 4 mph 69% 0.00 in 0 W/m2
17:30 38.6 °F 29.3 °F 30.40 in South 3 mph 3 mph 69% 0.00 in 0 W/m2
17:35 38.6 °F 29.7 °F 30.40 in SSW 2 mph 3 mph 70% 0.00 in 0 W/m2
17:40 38.6 °F 29.3 °F 30.40 in WSW 2 mph 2 mph 69% 0.00 in 0 W/m2
17:55 38.7 °F 29.8 °F 30.40 in SSW 3 mph 3 mph 70% 0.00 in 0 W/m2
18:00 38.6 °F 30.7 °F 30.40 in NE 2 mph 2 mph 73% 0.00 in 0 W/m2
18:05 38.5 °F 31.6 °F 30.40 in NE 1 mph 2 mph 76% 0.00 in 0 W/m2
18:10 38.3 °F 31.7 °F 30.41 in North 1 mph 1 mph 77% 0.00 in 0 W/m2
18:15 38 °F 31.1 °F 30.41 in North 2 mph 2 mph 76% 0.00 in 0 W/m2
18:20 38 °F 31.4 °F 30.41 in NNE 2 mph 2 mph 77% 0.00 in 0 W/m2
18:25 37.8 °F 31.6 °F 30.40 in NNE 1 mph 2 mph 78% 0.00 in 0 W/m2
18:30 37.7 °F 31.5 °F 30.40 in North 2 mph 2 mph 78% 0.00 in 0 W/m2
18:40 37.7 °F 31.5 °F 30.40 in North 2 mph 2 mph 78% 0.00 in 0 W/m2
18:45 37.7 °F 31.1 °F 30.41 in North 1 mph 2 mph 77% 0.00 in 0 W/m2
18:50 37.7 °F 31.5 °F 30.41 in North 1 mph 1 mph 78% 0.00 in 0 W/m2
Sand Point, Michigan, USA
Compliments of Weather Underground - 2 mb